Weather History for KINF - June, 2013

Change the Weather History Date:

Tuesday, June 18, 2013

  Actual Average (KGNV) Record (KGNV)
Temperature  
Mean Temperature 80 °F 80 °F  
Max Temperature 89 °F 90 °F 101 °F (1998)
Min Temperature 71 °F 70 °F 60 °F (1933)
Degree Days  
Heating Degree Days 0 0  
Month to date heating degree days 0  
Since 1 June heating degree days 0  
Since 1 July heating degree days 1218  
Cooling Degree Days 15 15  
Month to date cooling degree days 254  
Year to date cooling degree days 764  
Since 1 June cooling degree days 254  
Growing Degree Days 30 (Base 50)    
Moisture  
Dew Point 71 °F    
Average Humidity 75    
Maximum Humidity 100    
Minimum Humidity 49    
Precipitation  
Precipitation 0.03 in 0.26 in 2.81 in (1941)
Month to date precipitation 3.93  
Year to date precipitation 19.92  
Snow  
Snow 0.00 in 0.00 in 0.00 in ()
Month to date snowfall 0.0  
Since 1 June snowfall 0.0  
Since 1 July snowfall 0.0  
Snow Depth -    
Sea Level Pressure  
Sea Level Pressure 30.03 in    
Wind  
Wind Speed 2 mph (SW)    
Max Wind Speed 8 mph    
Max Gust Speed -    
Visibility 9 miles    
Events      
T = Trace of Precipitation, MM = Missing Value Source: NWS Daily Summary

Daily Weather History Graph

Daily Weather History Graph

Search for Another Location

Airport or City:

Trip Planner

Search our weather history database for the weather conditions in past years. The results will help you decide how hot, cold, wet, or windy it might be!

Date:

Astronomy

Jun. 18, 2013 Rise Set
Actual Time 6:31 AM EDT 8:29 PM EDT
Civil Twilight 6:04 AM EDT 8:56 PM EDT
Nautical Twilight 5:31 AM EDT 9:29 PM EDT
Astronomical Twilight 4:56 AM EDT 10:04 PM EDT
Moon 3:30 PM EDT (6/18) 2:18 AM EDT (6/18)
Length of Visible Light 14h 52m
Length of Day
13h 58m
Waxing Gibbous, 70% of the Moon is Illuminated
Jun 18
Waxing Gibbous
Jun 23
Full
Jun 30
Last Quarter
Jul 8
New
Jul 15
First Quarter

Hourly Weather History & Observations

Time (EDT) Temp. Heat Index Dew Point Humidity Pressure Visibility Wind Dir Wind Speed Gust Speed Precip Events Conditions
12:15 AM 73.4 °F - 73.4 °F 100% 30.06 in 10.0 mi Calm Calm - N/A   Clear
12:35 AM 73.4 °F - 73.4 °F 100% 30.07 in 7.0 mi Calm Calm - N/A   Clear
12:55 AM 73.4 °F - 73.4 °F 100% 30.07 in 7.0 mi Calm Calm - N/A   Clear
1:15 AM 73.4 °F - 73.4 °F 100% 30.06 in 7.0 mi Calm Calm - N/A   Clear
1:35 AM 73.4 °F - 71.6 °F 94% 30.05 in 7.0 mi Calm Calm - N/A   Clear
1:55 AM 73.4 °F - 71.6 °F 94% 30.05 in 5.0 mi Calm Calm - N/A   Clear
2:15 AM 73.4 °F - 71.6 °F 94% 30.05 in 7.0 mi Calm Calm - N/A   Clear
2:35 AM 73.4 °F - 71.6 °F 94% 30.04 in 7.0 mi South 3.5 mph - N/A   Clear
2:55 AM 73.4 °F - 71.6 °F 94% 30.04 in 10.0 mi Calm Calm - N/A   Clear
3:15 AM 73.4 °F - 71.6 °F 94% 30.03 in 7.0 mi Calm Calm - N/A   Clear
3:35 AM 71.6 °F - 71.6 °F 100% 30.03 in 7.0 mi Calm Calm - N/A   Clear
3:55 AM 71.6 °F - 71.6 °F 100% 30.03 in 7.0 mi Calm Calm - N/A   Clear
4:15 AM 71.6 °F - 71.6 °F 100% 30.02 in 7.0 mi South 3.5 mph - N/A   Clear
4:35 AM 71.6 °F - 71.6 °F 100% 30.02 in 7.0 mi Calm Calm - N/A   Clear
4:55 AM 71.6 °F - 71.6 °F 100% 30.02 in 10.0 mi Calm Calm - N/A   Clear
5:15 AM 71.6 °F - 71.6 °F 100% 30.02 in 7.0 mi Calm Calm - N/A   Clear
5:35 AM 71.6 °F - 69.8 °F 94% 30.02 in 7.0 mi Calm Calm - N/A   Clear
5:55 AM 71.6 °F - 71.6 °F 100% 30.02 in 7.0 mi Calm Calm - N/A   Clear
6:15 AM 71.6 °F - 71.6 °F 100% 30.02 in 7.0 mi Calm Calm - N/A   Clear
6:35 AM 71.6 °F - 71.6 °F 100% 30.03 in 7.0 mi Calm Calm - N/A   Clear
6:55 AM 71.6 °F - 71.6 °F 100% 30.05 in 5.0 mi Calm Calm - N/A   Clear
7:15 AM 73.4 °F - 71.6 °F 94% 30.05 in 5.0 mi Calm Calm - N/A   Clear
7:35 AM 75.2 °F - 73.4 °F 94% 30.06 in 7.0 mi Calm Calm - N/A   Clear
7:55 AM 77.0 °F - 73.4 °F 89% 30.06 in 10.0 mi SSW 4.6 mph - N/A   Clear
8:15 AM 78.8 °F - 73.4 °F 83% 30.06 in 10.0 mi South 3.5 mph - N/A   Clear
8:35 AM - - - N/A% - - North - - N/A   Unknown
8:55 AM - - - N/A% 30.07 in - North - - N/A   Unknown
9:15 AM - - - N/A% - - North - - N/A   Unknown
9:35 AM - - - N/A% - - North - - N/A   Unknown
9:55 AM 86.0 °F 93.4 °F 73.4 °F 66% 30.07 in 10.0 mi South 6.9 mph - 0.03 in   Mostly Cloudy
10:15 AM 86.0 °F 91.8 °F 71.6 °F 62% 30.07 in 10.0 mi SW 5.8 mph - N/A   Overcast
10:35 AM 86.0 °F 91.8 °F 71.6 °F 62% 30.07 in 10.0 mi SSW 5.8 mph - N/A   Mostly Cloudy
10:55 AM 86.0 °F 91.8 °F 71.6 °F 62% 30.06 in 10.0 mi South 5.8 mph - N/A   Scattered Clouds
11:15 AM 86.0 °F 91.8 °F 71.6 °F 62% 30.07 in 10.0 mi Calm Calm - N/A   Scattered Clouds
11:35 AM 87.8 °F 93.8 °F 71.6 °F 58% 30.07 in 10.0 mi SSW 5.8 mph - N/A   Scattered Clouds
11:55 AM 89.6 °F 94.7 °F 69.8 °F 52% 30.07 in 10.0 mi SW 5.8 mph - N/A   Scattered Clouds
12:15 PM 87.8 °F 92.6 °F 69.8 °F 55% 30.07 in 10.0 mi WSW 6.9 mph - N/A   Scattered Clouds
12:35 PM 89.6 °F 94.7 °F 69.8 °F 52% 30.06 in 10.0 mi WSW 8.1 mph - N/A   Scattered Clouds
12:55 PM 89.6 °F 94.7 °F 69.8 °F 52% 30.06 in 10.0 mi SW 5.8 mph - N/A   Scattered Clouds
1:15 PM 89.6 °F 94.7 °F 69.8 °F 52% 30.06 in 10.0 mi West 5.8 mph - N/A   Scattered Clouds
1:35 PM 89.6 °F 94.7 °F 69.8 °F 52% 30.05 in 10.0 mi West 3.5 mph - N/A   Scattered Clouds
1:55 PM 89.6 °F 94.7 °F 69.8 °F 52% 30.04 in 7.0 mi WSW 5.8 mph - N/A   Scattered Clouds
2:15 PM 89.6 °F 94.7 °F 69.8 °F 52% 30.04 in 7.0 mi WSW 8.1 mph - N/A   Mostly Cloudy
2:35 PM 89.6 °F 94.7 °F 69.8 °F 52% 30.03 in 7.0 mi West 4.6 mph - N/A   Mostly Cloudy
2:55 PM 89.6 °F 94.7 °F 69.8 °F 52% 30.02 in 10.0 mi West 8.1 mph - N/A   Mostly Cloudy
3:15 PM 89.6 °F 94.7 °F 69.8 °F 52% 30.02 in 10.0 mi WSW 8.1 mph - N/A   Mostly Cloudy
3:35 PM 89.6 °F 93.4 °F 68.0 °F 49% 30.02 in 7.0 mi SW 8.1 mph - N/A   Mostly Cloudy
3:55 PM 89.6 °F 94.7 °F 69.8 °F 52% 30.01 in 10.0 mi SW 4.6 mph - N/A   Scattered Clouds
4:15 PM 89.6 °F 93.4 °F 68.0 °F 49% 30.01 in 10.0 mi WNW 4.6 mph - N/A   Scattered Clouds
4:35 PM 89.6 °F 94.7 °F 69.8 °F 52% 30.00 in 10.0 mi West 6.9 mph - N/A   Scattered Clouds
4:55 PM 89.6 °F 94.7 °F 69.8 °F 52% 30.00 in 10.0 mi West 5.8 mph - N/A   Clear
5:15 PM 89.6 °F 93.4 °F 68.0 °F 49% 29.99 in 10.0 mi Calm Calm - N/A   Scattered Clouds
5:35 PM 89.6 °F 94.7 °F 69.8 °F 52% 29.99 in 10.0 mi SW 3.5 mph - N/A   Clear
5:55 PM 87.8 °F 91.4 °F 68.0 °F 52% 29.99 in 10.0 mi West 6.9 mph - N/A   Clear
6:15 PM 87.8 °F 92.6 °F 69.8 °F 55% 29.98 in 10.0 mi WSW 6.9 mph - N/A   Clear
6:35 PM 87.8 °F 92.6 °F 69.8 °F 55% 29.98 in 10.0 mi WSW 5.8 mph - N/A   Clear
6:55 PM 87.8 °F 92.6 °F 69.8 °F 55% 29.99 in 10.0 mi WSW 4.6 mph - N/A   Clear
7:15 PM 86.0 °F 90.4 °F 69.8 °F 58% 29.98 in 10.0 mi WSW 3.5 mph - N/A   Clear
7:35 PM 86.0 °F 90.4 °F 69.8 °F 58% 29.99 in 10.0 mi WSW 3.5 mph - N/A   Clear
7:55 PM 84.2 °F 88.4 °F 69.8 °F 62% 29.99 in 10.0 mi SW 4.6 mph - N/A   Clear
8:15 PM 82.4 °F 87.2 °F 71.6 °F 70% 29.99 in 10.0 mi Calm Calm - N/A   Clear
8:35 PM 82.4 °F 87.2 °F 71.6 °F 70% 30.00 in 10.0 mi Calm Calm - N/A   Clear
8:55 PM 80.6 °F 84.6 °F 71.6 °F 74% 30.01 in 10.0 mi Calm Calm - N/A   Clear
9:15 PM 78.8 °F - 71.6 °F 78% 30.01 in 10.0 mi Calm Calm - N/A   Clear
9:35 PM 78.8 °F - 71.6 °F 78% 30.01 in 10.0 mi Calm Calm - N/A   Clear
9:55 PM 77.0 °F - 71.6 °F 83% 30.02 in 10.0 mi Calm Calm - N/A   Clear
10:15 PM 77.0 °F - 71.6 °F 83% 30.03 in 10.0 mi Calm Calm - N/A   Clear
10:35 PM 77.0 °F - 73.4 °F 89% 30.03 in 10.0 mi Calm Calm - N/A   Clear
10:55 PM 77.0 °F - 73.4 °F 89% 30.03 in 10.0 mi Calm Calm - N/A   Clear
11:15 PM 75.2 °F - 73.4 °F 94% 30.03 in 10.0 mi Calm Calm - N/A   Clear
11:35 PM 75.2 °F - 73.4 °F 94% 30.03 in 10.0 mi Calm Calm - N/A   Clear
11:55 PM 73.4 °F - 73.4 °F 100% 30.03 in 10.0 mi Calm Calm - N/A   Clear